Starlink 11550

operational
NORAD ID: 63052 Int'l Des: 2025-035 Owner: SPXS Country: US Constellation: starlink
LEOCIRCULAR

About Starlink 11550

Description loading...

Live Position

Loading 3D Globe...

Upcoming Passes

Altitude History

Altitude vs Time

uPlot chart will show altitude changes over time

Two-Line Element Set

1 63052U 25035A 25351.73344530 .00200763 00000-0 15251-2 0 9990
2 63052 42.9992 149.1392 0002083 263.8055 96.2576 15.70924764 48332
Epoch: Dec 17, 2025 • Age: 14 hours

Current Status

Altitude 357.9 km
Velocity 7.70 km/s
Sub-Earth Point 33.99°N, 74.42°E
Launch Date Feb 21, 2025
Age 0.8 years
Type internet

Technical Details

Classification Payload
Mass 960.00 kg
Dry Mass 910.00 kg
Total Mass 960.00 kg
Length 0.30 m
Diameter 4.10 m
Span 29.00 m
Shape Box + pan
Manufacturer SPXS
Bus Type Starlink V2MD
Phase Status In Orbit
Owner/State SPXS/US

Large Constellations

Loading constellations...